Weather History for Manassas, VA

Change the Weather History Date:

Thursday, June 27, 2013

  Actual Average Record
Temperature  
Mean Temperature 75 °F -  
Max Temperature 82 °F 82 °F 96 °F (2007)
Min Temperature 68 °F 61 °F 51 °F (2004)
Cooling Degree Days 10    
Growing Degree Days 25 (Base 50)    
Moisture  
Dew Point 71 °F    
Average Humidity 91    
Maximum Humidity 100    
Minimum Humidity 70    
Precipitation  
Precipitation 0.00 in - - ()
Sea Level Pressure  
Sea Level Pressure 29.73 in    
Wind  
Wind Speed 3 mph (SSW)    
Max Wind Speed 12 mph    
Max Gust Speed 17 mph    
Visibility 8 miles    
Events      
Averages and records for this station are not official NWS values.
T = Trace of Precipitation, MM = Missing Value Source: NWS Daily Summary

Daily Weather History Graph

Daily Weather History Graph

Search for Another Location

Airport:

Trip Planner

Search our weather history database for the weather conditions in past years. The results will help you decide how hot, cold, wet, or windy it might be!

Date:

Astronomy

Jun. 27, 2013 Rise Set
Actual Time 5:47 AM EDT 8:38 PM EDT
Civil Twilight 5:15 AM EDT 9:10 PM EDT
Nautical Twilight 4:35 AM EDT 9:50 PM EDT
Astronomical Twilight 3:49 AM EDT 10:36 PM EDT
Moon 11:38 PM EDT (6/27) 10:42 AM EDT (6/27)
Length of Visible Light 15h 55m
Length of Day
14h 51m
Waning Gibbous, 76% of the Moon is Illuminated
Jun 27
Waning Gibbous
Jun 30
Last Quarter
Jul 8
New
Jul 15
First Quarter
Jul 22
Full

Hourly Weather History & Observations

Time (EDT) Temp. Heat Index Dew Point Humidity Pressure Visibility Wind Dir Wind Speed Gust Speed Precip Events Conditions
12:15 AM 69.8 °F - 69.8 °F 100% 29.85 in 10.0 mi South 3.5 mph - N/A   Clear
12:35 AM 69.8 °F - 68.0 °F 94% 29.86 in 10.0 mi SSE 4.6 mph - N/A   Clear
12:55 AM 69.8 °F - 69.8 °F 100% 29.85 in 10.0 mi Calm Calm - N/A   Clear
1:15 AM 69.8 °F - 69.8 °F 100% 29.85 in 10.0 mi Calm Calm - N/A   Clear
1:35 AM 69.8 °F - 68.0 °F 94% 29.83 in 10.0 mi Calm Calm - N/A   Clear
1:55 AM 69.8 °F - 69.8 °F 100% 29.83 in 10.0 mi Calm Calm - N/A   Clear
2:15 AM 68.0 °F - 68.0 °F 100% 29.83 in 10.0 mi SSE 3.5 mph - N/A   Clear
2:35 AM 68.0 °F - 68.0 °F 100% 29.83 in 10.0 mi South 4.6 mph - N/A   Clear
2:55 AM 68.0 °F - 68.0 °F 100% 29.83 in 10.0 mi Calm Calm - N/A   Partly Cloudy
3:15 AM 69.8 °F - 69.8 °F 100% 29.82 in 9.0 mi Calm Calm - N/A   Mostly Cloudy
3:35 AM 69.8 °F - 69.8 °F 100% 29.82 in 8.0 mi Calm Calm - N/A   Overcast
3:55 AM 69.8 °F - 69.8 °F 100% 29.80 in 3.0 mi Calm Calm - N/A   Overcast
4:15 AM 69.8 °F - 69.8 °F 100% 29.80 in 1.2 mi South 4.6 mph - N/A   Overcast
4:35 AM 69.8 °F - 69.8 °F 100% 29.81 in 0.8 mi South 6.9 mph - N/A   Overcast
4:55 AM 69.8 °F - 69.8 °F 100% 29.81 in 0.8 mi South 5.8 mph - N/A   Overcast
5:15 AM 69.8 °F - 69.8 °F 100% 29.81 in 0.8 mi South 4.6 mph - N/A   Overcast
5:35 AM 69.8 °F - 69.8 °F 100% 29.81 in 1.2 mi Calm Calm - N/A   Overcast
5:55 AM 69.8 °F - 69.8 °F 100% 29.82 in 0.8 mi South 3.5 mph - N/A   Overcast
6:15 AM 69.8 °F - 69.8 °F 100% 29.81 in 0.5 mi SE 3.5 mph - N/A   Overcast
8:35 AM 69.8 °F - 68.0 °F 94% 29.80 in 4.0 mi SSE 4.6 mph - N/A   Overcast
8:45 AM 69.8 °F - 68.0 °F 94% 29.80 in 5.0 mi SSW 4.6 mph - N/A   Overcast
9:55 AM 71.6 °F - 69.8 °F 94% 29.87 in 8.0 mi South 4.6 mph - N/A   Overcast
11:55 AM 80.6 °F 84.6 °F 71.6 °F 74% 29.73 in 10.0 mi South 4.6 mph - N/A   Overcast
1:00 PM 75.2 °F - 71.6 °F 89% 29.72 in 10.0 mi South 9.2 mph - N/A   Overcast
1:45 PM 75.2 °F - 71.6 °F 89% 29.71 in 6.0 mi ESE 10.4 mph - N/A   Overcast
2:45 PM 73.4 °F - 71.6 °F 94% 29.70 in 5.0 mi SSW 4.6 mph - N/A   Overcast
3:55 PM 75.2 °F - 71.6 °F 89% 29.68 in 10.0 mi SW 6.9 mph - N/A   Overcast
4:15 PM 75.2 °F - 71.6 °F 89% 29.67 in 10.0 mi SSW 5.8 mph - N/A   Mostly Cloudy
4:35 PM 77.0 °F - 71.6 °F 83% 29.66 in 10.0 mi SW 6.9 mph - N/A   Overcast
4:55 PM 77.0 °F - 71.6 °F 83% 29.66 in 10.0 mi SW 8.1 mph - N/A   Mostly Cloudy
5:15 PM 78.8 °F - 71.6 °F 78% 29.65 in 10.0 mi WSW 4.6 mph - N/A   Mostly Cloudy
5:35 PM 80.6 °F 84.6 °F 71.6 °F 74% 29.64 in 10.0 mi WSW 5.8 mph - N/A   Partly Cloudy
5:50 PM 80.6 °F 84.6 °F 71.6 °F 74% 29.64 in 10.0 mi SW 6.9 mph - N/A   Scattered Clouds
5:55 PM 80.6 °F 84.6 °F 71.6 °F 74% 29.64 in 10.0 mi SW 5.8 mph - N/A   Clear
6:15 PM 80.6 °F 85.4 °F 73.4 °F 79% 29.65 in 10.0 mi WSW 6.9 mph - N/A   Clear
6:35 PM 82.4 °F 87.2 °F 71.6 °F 70% 29.64 in 10.0 mi SW 5.8 mph - N/A   Clear
6:50 PM 82.4 °F 88.2 °F 73.4 °F 74% 29.65 in 10.0 mi SW 5.8 mph - N/A   Scattered Clouds
6:55 PM 82.4 °F 87.2 °F 71.6 °F 70% 29.65 in 10.0 mi SW 5.8 mph - N/A   Clear
7:15 PM 80.6 °F 84.6 °F 71.6 °F 74% 29.65 in 10.0 mi Calm Calm - N/A   Mostly Cloudy
7:35 PM 80.6 °F 84.6 °F 71.6 °F 74% 29.65 in 10.0 mi Calm Calm - N/A   Mostly Cloudy
7:55 PM 80.6 °F 85.4 °F 73.4 °F 79% 29.65 in 10.0 mi SSW 11.5 mph 17.3 mph N/A   Mostly Cloudy
8:15 PM 75.2 °F - 73.4 °F 94% 29.66 in 10.0 mi SSW 6.9 mph - N/A   Overcast
8:35 PM 75.2 °F - 73.4 °F 94% 29.66 in 10.0 mi SSW 4.6 mph - N/A   Overcast
8:55 PM 75.2 °F - 73.4 °F 94% 29.66 in 10.0 mi South 4.6 mph - N/A   Overcast
9:15 PM 75.2 °F - 73.4 °F 94% 29.66 in 10.0 mi SSW 3.5 mph - N/A   Overcast
9:35 PM 75.2 °F - 71.6 °F 89% 29.67 in 10.0 mi SSW 4.6 mph - N/A   Overcast
9:55 PM 75.2 °F - 71.6 °F 89% 29.67 in 9.0 mi Calm Calm - N/A   Mostly Cloudy
10:15 PM 73.4 °F - 71.6 °F 94% 29.67 in 10.0 mi SE 3.5 mph - N/A   Overcast
10:35 PM 73.4 °F - 71.6 °F 94% 29.66 in 10.0 mi Calm Calm - N/A   Scattered Clouds
10:55 PM 73.4 °F - 71.6 °F 94% 29.66 in 10.0 mi Calm Calm - N/A   Clear
11:15 PM 73.4 °F - 71.6 °F 94% 29.66 in 10.0 mi Calm Calm - N/A   Clear
11:35 PM 71.6 °F - 71.6 °F 100% 29.66 in 10.0 mi Calm Calm - N/A   Partly Cloudy
11:55 PM 71.6 °F - 71.6 °F 100% 29.66 in 10.0 mi Calm Calm - N/A   Scattered Clouds